This is the latest recevied weather packets stored in our database for station/object IK2ILW-6. If no packets are shown the sender has not sent any weather packets the latest 10 day(s).
| Time | Temp. | Humidity | Pressure | Rain* | Wind** | Luminosity | Snow |
|---|---|---|---|---|---|---|---|
| 1778143595 | 2.78° C | 95% | 1013.6 hPa | 1.02 mm | - | 209 W/m² | - |
| 1778143288 | 3.33° C | 95% | 1013.6 hPa | 1.02 mm | - | 214 W/m² | - |
| 1778142993 | 3.33° C | 96% | 1013.5 hPa | 1.02 mm | - | 151 W/m² | - |
| 1778142696 | 3.33° C | 95% | 1013.4 hPa | 2.03 mm | - | 137 W/m² | - |
| 1778142400 | 2.78° C | 95% | 1013.4 hPa | 2.03 mm | - | 118 W/m² | - |
| 1778142083 | 2.78° C | 94% | 1013.4 hPa | 2.03 mm | - | 132 W/m² | - |
| 1778141788 | 2.78° C | 94% | 1013.3 hPa | 1.02 mm | - | 158 W/m² | - |
| 1778141496 | 3.33° C | 93% | 1013.2 hPa | 1.02 mm | - | 95 W/m² | - |
| 1778141201 | 3.33° C | 93% | 1013.2 hPa | 1.02 mm | - | 100 W/m² | - |
| 1778140885 | 3.33° C | 93% | 1013.1 hPa | 2.03 mm | - | 137 W/m² | - |
| 1778140588 | 3.33° C | 93% | 1013 hPa | 2.03 mm | - | 172 W/m² | - |
| 1778140293 | 3.33° C | 95% | 1013.1 hPa | 2.03 mm | - | 199 W/m² | - |
| 1778139996 | 3.33° C | 94% | 1013 hPa | 3.05 mm | - | 214 W/m² | - |
| 1778139699 | 2.78° C | 93% | 1013 hPa | 3.05 mm | - | 156 W/m² | - |
| 1778139383 | 3.33° C | 94% | 1013 hPa | 4.06 mm | - | 141 W/m² | - |
| 1778139088 | 3.33° C | 94% | 1012.9 hPa | 3.05 mm | - | 132 W/m² | - |
| 1778138792 | 3.33° C | 94% | 1013 hPa | 3.05 mm | - | 135 W/m² | - |
| 1778138496 | 3.33° C | 94% | 1012.9 hPa | 3.05 mm | - | 128 W/m² | - |
| 1778138185 | 3.33° C | 92% | 1012.8 hPa | 4.06 mm | - | 239 W/m² | - |
| 1778137890 | 3.33° C | 92% | 1012.8 hPa | 4.06 mm | - | 76 W/m² | - |
| 1778137593 | 3.33° C | 92% | 1012.7 hPa | 3.05 mm | - | 97 W/m² | - |
| 1778137297 | 3.89° C | 92% | 1012.7 hPa | 3.05 mm | - | 519 W/m² | - |
| 1778136983 | 3.89° C | 91% | 1012.6 hPa | 4.06 mm | - | 332 W/m² | - |
| 1778136688 | 3.89° C | 94% | 1012.6 hPa | 4.06 mm | - | 304 W/m² | - |
| 1778136393 | 3.33° C | 93% | 1012.5 hPa | 3.05 mm | - | 278 W/m² | - |
* Rain latest hour (hover to see other rain measurements)
** Current wind speed in m/s (hover to see current wind gust speed)